Location: Chiroubles
(46.1812°N, 4.6660°E)
Time: 11:46:42
(UTC+00:00)

N. Korean satellite - Pass Details

Date: 31 October 2020
Orbit: 453 x 503 km, 97.2° (Epoch: 03 December)

Event Time Altitude Azimuth Distance (km) Brightness Sun altitude
Rises 17:23:38 0° 208° (SSW) 2,532 10.8 -10.1°
Reaches altitude 10° 17:26:27 10° 233° (SW) 1,647 10.3 -10.6°
Maximum altitude 17:28:29 15° 268° (W) 1,380 10.2 -11.0°
Drops below altitude 10° 17:30:32 10° 304° (NW) 1,639 10.0 -11.3°
Sets 17:33:19 0° 329° (NNW) 2,511 10.5 -11.8°
